Showing default

SELENE, 69020

AKA "SELENE" on Space-Track | Orbit data source: Space-Track

SELENE, 69020 is a Greek payload satellite in SSO that was launched on Sun, 03 May 2026 UTC via an FALCON 9 launch vehicle from the Air Force Western Test Range (AFWTR). Payload-class satellites include a variety of spacecraft equipped with specific instruments for various scientific and technological missions. These include communications satellites like Starlink; space stations such as the ISS; scientific satellites like the Hubble; Earth observation satellites from companies like Planet Labs, Umbra, and HawkEye 360; GPS; miniature CubeSats for education and research; and military/defense satellites.

Loading next visibility...
Identifier
69020, 2026-100AS
Orbit
SSO
Country
Flag of GRGR / GREC
Related business
Manufacturer
EMTECH
Mission
Operational spacecraft
Bus & Motor
CUBESAT 8U, Unknown motor
Mass
~8 kg wet, ~8 kg dry
Launch date (UTC)
2026-05-03 (2 months ago)
Launch vehicle
FALCON 9
Launch site
Air Force Western Test Range (AFWTR)
Object type
Payload
Rocket body
Debris
Shape & HBR
Unknown shape, 14.5 m
Radar Cross Section
Medium (>0.1 m² and <1 m²)

Expand to show TLE details & history
Last TLE update: 22 hours ago

TLE from 22 hours ago
0 SELENE
1 69020U 26100AS  26174.95752460  .00004608  00000-0  21753-3 0  9993
2 69020  97.4038  72.6069 0003174 345.8060  14.3086 15.19928297  7834
Epoch: 2026-06-23T22:58Z
TLE epoch observation values (Epoch: 2026-06-23T22:58:50.125Z)
Latitude
0.00004°
Longitude
175.77641°
Altitude
507.03 km
Speed
7.612 km/s
True Right ascension
04h 50m 25s
True Declination
0° 00' 00"
Sunlit
Object was in daylight at epoch
Visualization orbit readout
Latitude
Unknown
Longitude
Unknown
Altitude
Unknown
Speed
Unknown
Apparent Right ascension
Unknown
Apparent Declination
Unknown
Sunlit
N/A
Visualization observer readout
Local Sidereal Time
08:36:06
Azimuth
Unknown
Elevation
Unknown
Doppler factor
Unknown
Orbital elements
Apogee altitude
505.207 km
Perigee altitude
500.839 km
Semi-major axis
6,881.16 km
Eccentricity
0.00032
Inclination
97.4038°
RAAN
72.6069°
Arg. of periapsis
345.806°
True anomaly
14.31759°
Mean anomaly
14.3086°
Eccentric anomaly
14.3131°
Mean motion
3.80234 °/min
Orbital period
94.68 mins
BSTAR
0.00021753
Loading maneuver chart data...
Computing Atmospheric mass density...
Loading historical data...
Loading historical data...
Loading historical data...
Loading historical data...
Loading historical data...
Loading historical data...
Loading historical data...

Documentation

Showing up to 5 results
|